Regional Weather Roundup
Issued by NWS Sioux Falls, SD

Home | Current Version | Previous Version | Graphics & Text | Print | Product List | Glossary Off
Versions: 1 2 3 4 5 6 7 8 9 10 11 12 13 14 15 16 17 18 19 20 21 22 23 24 25 26 27 28 29 30 31 32 33 34 35 36 37 38 39 40 41 42 43 44 45 46 47 48 49 50

000
ASUS43 KFSD 170402
RWRFSD

WEATHER ROUNDUP FOR SE SOUTH DAKOTA/SW MINNESOTA/NW IOWA
NATIONAL WEATHER SERVICE SIOUX FALLS SD
1100 PM CDT TUE SEP 16 2014

NOTE: "FAIR" INDICATES FEW OR NO CLOUDS BELOW 12,000 FEET WITH NO
SIGNIFICANT WEATHER AND OR OBSTRUCTIONS TO VISIBILITY.


SDZ038>040-050-052>070-170500-
SOUTHEAST SOUTH DAKOTA

CITY           SKY/WX    TMP DP  RH WIND       PRES   REMARKS
CHAMBERLAIN    PTCLDY    56  54  92 SE3       29.90S
HURON          CLEAR     59  53  80 S9        29.91S
MADISON        CLOUDY    57  54  88 S8        29.96F
MITCHELL       PTCLDY    58  53  84 SE9       29.92F
SIOUX FALLS    CLOUDY    62  49  62 S9        29.97S
WINNER         FAIR      64  57  78 S6        29.92S
YANKTON        CLEAR     57  48  72 S7        29.96S
$$

MNZ071-072-080-081-089-090-097-098-170500-
SOUTHWEST MINNESOTA

CITY           SKY/WX    TMP DP  RH WIND       PRES   REMARKS
FAIRMONT       MOCLDY    54  45  71 S7        30.02S
JACKSON        PTCLDY    55  46  71 S6        30.02F
LUVERNE        CLOUDY    59  50  72 S5        29.99S
MARSHALL       CLOUDY    61  48  63 S9        29.96F
MONTEVIDEO     CLOUDY    61  52  72 CALM      29.98S
PIPESTONE      CLOUDY    59  48  67 S8        29.98S
REDWOOD FALLS  CLOUDY    61  50  67 S9        29.98F
TRACY          CLOUDY    59  51  75 CALM      29.99S
WINDOM         CLOUDY    57  50  77 S3        30.01S
WORTHINGTON    CLOUDY    57  46  67 S8        30.01F
$$

IAZ001>003-012>014-020>022-031-032-NEZ013-014-SDZ071-170500-
NORTHWEST IOWA

CITY           SKY/WX    TMP DP  RH WIND       PRES   REMARKS
CHEROKEE       PTCLDY    51  49  94 SE6       30.01F
DENISON        PTCLDY    52  50  93 SE5       30.02R
ESTHERVILLE    PTCLDY    50  46  86 S7        30.02S
LE MARS          N/A     61  50  67 S10       29.99F
ORANGE CITY    CLOUDY    59  50  72 S3        30.00S
SHELDON        CLOUDY    57  50  77 SE6G12    29.99S
SIOUX CITY     CLOUDY    57  52  83 SE6       29.99F
SPENCER        PTCLDY    53  47  79 S7        30.02R
STORM LAKE     PTCLDY    52  52 100 S8        30.03S
$$

ABBREVIATIONS USED IN REMARKS
   TC - TEMPERATURE IN CELSIUS
  WCI - WIND CHILL INDEX
   HX - HEAT INDEX
  VSB - VISIBILITY




USA.gov is the U.S. government's official web portal to all federal, state and local government web resources and services.